Volver al catálogo

STARLINK-6344

ActivoComunicacionesVLEO
NORAD 56520·PAYLOAD·🇺🇸 United States

Lanzado May 14, 2023 desde Cape Canaveral Space Force Station

Loading…

Próximos Pases (próximas 24 horas)

TLE

ActualizadoSource: CelesTrak SupGP

Época: Sep 15, 2026, 01:29 UTC

1 56520C 23065T   26258.06229167 -.00022082  00000+0 -79995-3 0  2585
2 56520  43.0010 223.0520 0000695 264.0306   8.8185 15.27583921    17

Sigue STARLINK-6344 en tiempo real con AllMySat

Download on the App Store